Flag for Germany Weather past 2 weeks in Olpe, North Rhine-Westphalia, Germany

Now
43 °F

Rain. Broken clouds.


Feels Like: 35 °F
Forecast: 38 / 43 °F
Wind: 17 mph from Southwest

Location: Hessen

Current Time: Mar 29, 2015 at 1:18:42 PM

Latest Report: Mar 29, 2015 at 12:50 PM


Visibility: 6 mi

Pressure: 29.62 "Hg

Humidity: 100%

Dew point: 43 °F

Location of OlpeLocation

Historic Weather in Olpe — Graph

°F

Olpe temperature yesterday

Maximum temperature yesterday: 46 °F (at 11:50 AM)
Minimum temperature yesterday: 36 °F (at 7:50 AM)
Average temperature yesterday: 42 °F

Past Weeks' High & Low Weather Summary

 TemperatureHumidityPressure
High59 °F (Mar 18, 2:20 PM)100% (Mar 14, 10:50 AM)30.30 "Hg (Mar 14, 10:50 AM)
Low30 °F (Mar 22, 7:20 AM)44% (Mar 18, 1:20 PM)29.65 "Hg (Mar 25, 7:20 AM)
Average41 °F81%30.04 "Hg
* Reported Mar 14 10:20 AM — Mar 29 11:50 AM, Olpe, Weather by CustomWeather, © 2015

Note: Actual official high and low records may vary slightly from our data, if they occured in-between our weather recording intervals... More about our weather records

Advertising

Olpe weather history for previous 24 hours

 ConditionsComfort  
Time TempWeatherWind HumidityBarometerVisibility
11:50 AM
Sun, Mar 29
43 °FRain. Partly sunny.15 mph100%29.65 "Hg4 mi
11:20 AM43 °FDrizzle. Partly sunny.16 mph100%29.65 "Hg4 mi
10:50 AM43 °FDrizzle. Broken clouds.14 mph100%29.65 "Hg5 mi
10:20 AM43 °FDrizzle. Broken clouds.16 mph100%29.68 "Hg5 mi
9:50 AM43 °FRain. Partly sunny.16 mph100%29.68 "Hg5 mi
9:20 AM45 °FRain. Partly sunny.16 mph93%29.68 "HgN/A
8:50 AM45 °FPartly sunny.16 mph93%29.68 "HgN/A
8:20 AM45 °FPartly sunny.17 mph93%29.71 "HgN/A
7:50 AM45 °FPassing clouds.14 mph93%29.71 "HgN/A
7:20 PM
Sat, Mar 28
41 °FRain. Fog.15 mph100%29.92 "Hg1 mi
6:50 PM41 °FRain. Fog.15 mph100%29.92 "Hg1 mi
6:20 PM41 °FRain. Fog.16 mph100%29.92 "Hg1 mi
5:50 PM41 °FRain. Fog.16 mph100%29.92 "Hg1 mi
5:20 PM41 °FRain. Fog.17 mph100%29.95 "Hg1 mi
4:50 PM41 °FRain. Fog.15 mph100%29.95 "Hg2 mi
4:20 PM43 °FRain. Partly sunny.14 mph93%29.95 "Hg5 mi
3:50 PM43 °FRain. Partly sunny.13 mph87%29.98 "HgN/A
3:20 PM43 °FRain. Partly sunny.10 mph81%29.98 "HgN/A
2:50 PM45 °FLight rain. Partly sunny.14 mph71%30.01 "HgN/A
2:20 PM46 °FPartly sunny.13 mph62%30.01 "HgN/A
1:50 PM46 °FPartly sunny.14 mph57%30.01 "HgN/A
1:20 PM46 °FPartly sunny.12 mph62%30.01 "HgN/A
Weather by CustomWeather, © 2015

See weather overviewHow to use our weather pages